Hayward, WI

4:54 AM CDT on August 17, 2017 (GMT -0500)
Sawyer County

Weather History for KHYR - June, 2013

Change the Weather History Date:

Monday, June 24, 2013

  Actual Average Record
Temperature  
Mean Temperature 68 °F -  
Max Temperature 82 °F 76 °F 87 °F (2007)
Min Temperature 53 °F 51 °F 32 °F (1972)
Cooling Degree Days 2    
Growing Degree Days 18 (Base 50)    
Moisture  
Dew Point 59 °F    
Average Humidity 85    
Maximum Humidity 100    
Minimum Humidity 47    
Precipitation  
Precipitation 0.00 in - - ()
Sea Level Pressure  
Sea Level Pressure 29.88 in    
Wind  
Wind Speed 1 mph (SSW)    
Max Wind Speed 12 mph    
Max Gust Speed -    
Visibility 6 miles    
Events      
Averages and records for this station are not official NWS values.
T = Trace of Precipitation, MM = Missing Value Source: NWS Daily Summary

Daily Weather History Graph

Daily Weather History Graph

Search for Another Location

Airport or City:

Trip Planner

Search our weather history database for the weather conditions in past years. The results will help you decide how hot, cold, wet, or windy it might be!

Date:

Astronomy

Jun. 24, 2013 Rise Set
Actual Time 5:15 AM CDT 9:00 PM CDT
Civil Twilight 4:37 AM CDT 9:39 PM CDT
Nautical Twilight 3:45 AM CDT 10:31 PM CDT
Astronomical Twilight 2:32 AM CDT 11:44 PM CDT
Moon 9:55 PM CDT (6/24) 6:49 AM CDT (6/24)
Length of Visible Light 17h 02m
Length of Day
15h 45m
Full, 98% of the Moon is Illuminated
Jun 24
Full
Jun 29
Last Quarter
Jul 8
New
Jul 15
First Quarter
Jul 22
Full

Hourly Weather History & Observations

Time (CDT) Temp. Heat Index Dew Point Humidity Pressure Visibility Wind Dir Wind Speed Gust Speed Precip Events Conditions
12:17 AM 60.8 °F - 57.2 °F 88% 29.89 in 1.0 mi Calm Calm - N/A   Mist
12:24 AM 57.2 °F - 57.2 °F 100% 29.89 in 0.8 mi Calm Calm - N/A   Mist
12:27 AM 59.0 °F - 57.2 °F 94% 29.89 in 2.5 mi Calm Calm - N/A   Clear
12:34 AM 60.8 °F - 57.2 °F 88% 29.89 in 10.0 mi Calm Calm - N/A   Clear
12:53 AM 57.9 °F - 57.0 °F 97% 29.89 in 5.0 mi Calm Calm - N/A   Clear
1:21 AM 57.2 °F - 55.4 °F 94% 29.90 in 1.2 mi Calm Calm - N/A   Clear
1:23 AM 57.2 °F - 55.4 °F 94% 29.90 in 0.8 mi Calm Calm - N/A   Mist
1:39 AM 57.2 °F - 57.2 °F 100% 29.90 in 1.2 mi Calm Calm - N/A   Scattered Clouds
1:48 AM 57.2 °F - 57.2 °F 100% 29.90 in 1.5 mi Calm Calm - N/A   Mostly Cloudy
1:53 AM 57.9 °F - 57.0 °F 97% 29.90 in 4.0 mi Calm Calm - N/A   Scattered Clouds
2:01 AM 55.4 °F - 55.4 °F 100% 29.91 in 1.8 mi Calm Calm - N/A   Scattered Clouds
2:04 AM 55.4 °F - 55.4 °F 100% 29.91 in 0.8 mi Calm Calm - N/A   Mist
2:18 AM 57.2 °F - 55.4 °F 94% 29.91 in 1.5 mi Calm Calm - N/A   Scattered Clouds
2:20 AM 57.2 °F - 55.4 °F 94% 29.91 in 4.0 mi Calm Calm - N/A   Scattered Clouds
2:53 AM 55.9 °F - 55.0 °F 97% 29.91 in 9.0 mi Calm Calm - N/A   Partly Cloudy
3:29 AM 55.4 °F - 53.6 °F 94% 29.91 in 1.5 mi Calm Calm - N/A   Scattered Clouds
3:32 AM 55.4 °F - 53.6 °F 94% 29.91 in 0.8 mi Calm Calm - N/A   Mist
3:41 AM 55.4 °F - 53.6 °F 94% 29.90 in 1.2 mi Calm Calm - N/A   Scattered Clouds
3:47 AM 55.4 °F - 53.6 °F 94% 29.90 in 2.0 mi Calm Calm - N/A   Mostly Cloudy
3:53 AM 54.0 °F - 54.0 °F 100% 29.90 in 1.5 mi Calm Calm - N/A   Mostly Cloudy
4:01 AM 55.4 °F - 53.6 °F 94% 29.90 in 3.0 mi Calm Calm - N/A   Mostly Cloudy
4:35 AM 53.6 °F - 53.6 °F 100% 29.90 in 10.0 mi Calm Calm - N/A   Scattered Clouds
4:53 AM 53.1 °F - 52.0 °F 96% 29.90 in 9.0 mi Calm Calm - N/A   Partly Cloudy
5:53 AM 54.0 °F - 53.1 °F 97% 29.91 in 7.0 mi Calm Calm - N/A   Clear
6:15 AM 55.4 °F - 53.6 °F 94% 29.92 in 10.0 mi Calm Calm - N/A   Partly Cloudy
6:53 AM 61.0 °F - 59.0 °F 93% 29.93 in 10.0 mi Calm Calm - N/A   Clear
7:53 AM 69.1 °F - 63.0 °F 81% 29.92 in 10.0 mi Calm Calm - N/A   Clear
8:53 AM 72.0 °F - 62.1 °F 71% 29.91 in 10.0 mi Calm Calm - N/A   Clear
9:53 AM 75.0 °F - 61.0 °F 62% 29.92 in 10.0 mi Calm Calm - N/A   Clear
10:53 AM 78.1 °F - 57.9 °F 50% 29.92 in 10.0 mi WSW 4.6 mph - N/A   Clear
11:53 AM 79.0 °F - 57.0 °F 47% 29.91 in 10.0 mi Variable 4.6 mph - N/A   Clear
12:53 PM 81.0 °F 81.3 °F 59.0 °F 47% 29.89 in 10.0 mi South 6.9 mph - N/A   Partly Cloudy
1:53 PM 80.1 °F 80.6 °F 57.9 °F 47% 29.88 in 10.0 mi South 11.5 mph - N/A   Clear
2:53 PM 81.0 °F 81.6 °F 60.1 °F 49% 29.86 in 10.0 mi SSW 9.2 mph - N/A   Scattered Clouds
3:53 PM 82.9 °F 83.3 °F 61.0 °F 47% 29.83 in 10.0 mi Variable 6.9 mph - N/A   Partly Cloudy
4:53 PM 81.0 °F 81.9 °F 62.1 °F 52% 29.83 in 10.0 mi SSW 9.2 mph - N/A   Partly Cloudy
5:53 PM 81.0 °F 82.5 °F 64.0 °F 56% 29.83 in 10.0 mi Calm Calm - N/A   Partly Cloudy
6:53 PM 80.1 °F 82.7 °F 68.0 °F 67% 29.83 in 10.0 mi SSW 8.1 mph - N/A   Partly Cloudy
7:53 PM 77.0 °F - 69.1 °F 76% 29.82 in 10.0 mi Variable 3.5 mph - N/A   Mostly Cloudy
8:53 PM 75.0 °F - 68.0 °F 79% 29.82 in 10.0 mi Calm Calm - N/A   Clear
9:53 PM 70.0 °F - 66.9 °F 90% 29.83 in 10.0 mi Calm Calm - N/A   Clear
10:53 PM 68.0 °F - 66.9 °F 96% 29.83 in 9.0 mi Calm Calm - N/A   Clear
11:04 PM 66.2 °F - 66.2 °F 100% 29.85 in 1.8 mi Calm Calm - N/A   Partly Cloudy
11:10 PM 66.2 °F - 64.4 °F 94% 29.85 in 2.5 mi Calm Calm - N/A   Mostly Cloudy
11:17 PM 66.2 °F - 64.4 °F 94% 29.85 in 6.0 mi Calm Calm - N/A   Mostly Cloudy
11:49 PM 66.2 °F - 66.2 °F 100% 29.86 in 8.0 mi Calm Calm - N/A   Scattered Clouds
11:53 PM 66.9 °F - 66.0 °F 97% 29.84 in 7.0 mi Calm Calm - N/A   Scattered Clouds